Date String (YYYY-MM-DD hh:mm:ss) UTC,Instrument flags,Ambient pressure (hPa),Sample flow (lpm),Bypass flow (lpm),Sample temperature (°C),Ambient temperature (°C),ASC tube jacket temperature (°C),LED temperature (°C),Box temperature (°C),Sample RH (%),Span deviation,Mass concentration (μg/m³),Mass concentration (μg/m³),Mass concentration (μg/m³)
DateTimeUTC,F1_M11,P_M11,Q1_M11,Q2_M11,T1_M11,T2_M11,T3_M11,T4_M11,T5_M11,U1_M11,ZSPAN_M11,X0_M11,X2_M11,X1_M11
2022-12-11 22:00:00,,0816.8,5.00,0.00,29.6,28.5,00.0,38.3,31.4,05.1,0000.0,0007.52,0001.91,0001.16
2022-12-11 22:01:00,,0816.9,5.00,0.00,29.6,28.5,00.0,38.3,31.4,05.2,0000.0,0009.05,0001.98,0001.17
2022-12-11 22:02:00,,0816.9,5.00,0.00,29.6,28.5,00.0,38.4,31.4,05.3,0000.0,0009.14,0002.02,0001.18
2022-12-11 22:03:00,,0817.0,4.99,0.00,29.6,28.5,00.0,38.4,31.5,05.2,0000.0,0008.97,0002.03,0001.17
2022-12-11 22:04:00,,0817.1,5.00,0.00,29.7,28.5,00.0,38.4,31.5,05.1,0000.0,0008.81,0002.05,0001.17
2022-12-11 22:05:00,,0817.1,5.00,0.00,29.7,28.5,00.0,38.4,31.5,05.1,0000.0,0008.79,0002.04,0001.18
2022-12-11 22:06:00,,0817.0,5.00,0.00,29.7,28.5,00.0,38.4,31.5,05.1,0000.0,0008.70,0002.02,0001.17
2022-12-11 22:07:00,,0817.0,5.01,0.00,29.7,28.6,00.0,38.4,31.5,05.1,0000.0,0008.65,0002.00,0001.15
2022-12-11 22:08:00,,0816.9,5.00,0.00,29.7,28.6,00.0,38.4,31.5,05.1,0000.0,0007.84,0001.98,0001.14
2022-12-11 22:09:00,,0816.9,4.99,0.00,29.7,28.6,00.0,38.5,31.5,05.1,0000.0,0007.70,0002.04,0001.15
2022-12-11 22:10:00,,0816.9,5.00,0.00,29.7,28.6,00.0,38.5,31.5,05.2,0000.0,0007.64,0002.05,0001.16
2022-12-11 22:11:00,,0816.9,5.00,0.00,29.7,28.6,00.0,38.5,31.6,05.2,0000.0,0007.66,0002.03,0001.16
2022-12-11 22:12:00,,0816.9,5.00,0.00,29.8,28.6,00.0,38.5,31.6,05.2,0000.0,0005.77,0002.05,0001.18
2022-12-11 22:13:00,,0816.9,5.00,0.00,29.8,28.6,00.0,38.5,31.6,05.3,0000.0,0005.54,0002.08,0001.21
2022-12-11 22:14:00,,0816.9,5.00,0.00,29.8,28.7,00.0,38.5,31.6,05.3,0000.0,0005.51,0002.10,0001.25
2022-12-11 22:15:00,,0816.9,4.99,0.00,29.8,28.7,00.0,38.6,31.6,05.3,0000.0,0005.61,0002.12,0001.29
2022-12-11 22:16:00,,0816.9,4.99,0.00,29.8,28.7,00.0,38.6,31.6,05.3,0000.0,0005.63,0002.13,0001.32
2022-12-11 22:17:00,,0816.9,5.00,0.00,29.8,28.7,00.0,38.6,31.7,05.4,0000.0,0005.75,0002.14,0001.35
2022-12-11 22:18:00,,0816.9,5.02,0.00,29.8,28.7,00.0,38.6,31.7,05.4,0000.0,0005.99,0002.18,0001.39
2022-12-11 22:19:00,,0816.9,5.00,0.00,29.9,28.7,00.0,38.6,31.7,05.3,0000.0,0009.46,0002.37,0001.44
2022-12-11 22:20:00,,0816.9,4.99,0.00,29.9,28.7,00.0,38.6,31.7,05.3,0000.0,0009.50,0002.40,0001.47
2022-12-11 22:21:00,,0817.1,4.99,0.00,29.9,28.7,00.0,38.6,31.7,05.3,0000.0,0010.29,0002.47,0001.51
2022-12-11 22:22:00,,0817.1,5.00,0.00,29.9,28.7,00.0,38.7,31.7,05.4,0000.0,0011.09,0002.48,0001.54
2022-12-11 22:23:00,,0817.1,5.00,0.00,29.9,28.7,00.0,38.7,31.7,05.3,0000.0,0010.66,0002.45,0001.57
2022-12-11 22:24:00,,0817.2,5.00,0.00,29.9,28.7,00.0,38.7,31.7,05.4,0000.0,0011.11,0002.45,0001.59
2022-12-11 22:25:00,,0817.3,5.01,0.00,29.9,28.8,00.0,38.7,31.7,05.4,0000.0,0011.55,0002.53,0001.61
2022-12-11 22:26:00,,0817.5,4.98,0.00,29.9,28.8,00.0,38.7,31.8,05.3,0000.0,0011.61,0002.60,0001.64
2022-12-11 22:27:00,,0817.4,5.01,0.00,30.0,28.8,00.0,38.7,31.8,05.3,0000.0,0011.83,0002.68,0001.67
2022-12-11 22:28:00,,0817.2,5.01,0.00,30.0,28.8,00.0,38.7,31.7,05.2,0000.0,0011.86,0002.71,0001.71
2022-12-11 22:29:00,,0817.2,5.00,0.00,30.0,28.8,00.0,38.7,31.7,05.3,0000.0,0012.02,0002.71,0001.73
2022-12-11 22:30:00,,0816.9,5.00,0.00,30.0,28.7,00.0,38.7,31.7,05.2,0000.0,0009.45,0002.60,0001.74
2022-12-11 22:31:00,,0816.8,5.00,0.00,30.0,28.8,00.0,38.8,31.8,05.2,0000.0,0010.47,0002.68,0001.78
2022-12-11 22:32:00,,0816.8,5.00,0.00,30.0,28.8,00.0,38.8,31.8,05.3,0000.0,0009.71,0002.68,0001.79
2022-12-11 22:33:00,,0816.8,4.99,0.00,30.0,28.8,00.0,38.8,31.8,05.2,0000.0,0009.06,0002.78,0001.80
2022-12-11 22:34:00,,0816.8,5.01,0.00,30.0,28.8,00.0,38.8,31.8,05.1,0000.0,0009.79,0002.87,0001.81
2022-12-11 22:35:00,,0816.8,5.00,0.00,30.0,28.8,00.0,38.8,31.8,05.1,0000.0,0009.65,0002.87,0001.81
2022-12-11 22:36:00,,0816.8,4.99,0.00,30.0,28.8,00.0,38.8,31.8,05.1,0000.0,0009.34,0002.89,0001.80
2022-12-11 22:37:00,,0816.9,5.01,0.00,30.0,28.8,00.0,38.8,31.8,05.0,0000.0,0009.66,0002.83,0001.77
2022-12-11 22:38:00,,0816.8,5.00,0.00,30.0,28.8,00.0,38.8,31.8,05.0,0000.0,0010.11,0002.79,0001.74
2022-12-11 22:39:00,,0816.8,4.99,0.00,30.0,28.8,00.0,38.8,31.8,04.9,0000.0,0010.15,0002.79,0001.70
2022-12-11 22:40:00,,0816.8,4.99,0.00,30.1,28.8,00.0,38.8,31.8,05.0,0000.0,0009.91,0002.78,0001.68
2022-12-11 22:41:00,,0816.9,5.01,0.00,30.1,28.8,00.0,38.9,31.9,05.0,0000.0,0009.68,0002.76,0001.65
2022-12-11 22:42:00,,0816.8,5.01,0.00,30.1,28.8,00.0,38.9,31.9,05.0,0000.0,0008.92,0002.71,0001.62
2022-12-11 22:43:00,,0816.9,5.00,0.00,30.1,28.9,00.0,38.9,31.9,05.0,0000.0,0009.15,0002.66,0001.61
2022-12-11 22:44:00,,0816.9,5.00,0.00,30.1,28.9,00.0,38.9,31.9,04.9,0000.0,0008.96,0002.59,0001.60
2022-12-11 22:45:00,,0816.9,5.00,0.00,30.1,28.9,00.0,38.9,31.9,04.8,0000.0,0008.27,0002.51,0001.59
2022-12-11 22:46:00,,0816.9,5.00,0.00,30.1,28.9,00.0,38.9,31.9,04.8,0000.0,0008.35,0002.49,0001.59
2022-12-11 22:47:00,,0816.8,5.00,0.00,30.1,28.9,00.0,38.9,32.0,04.8,0000.0,0008.12,0002.37,0001.58
2022-12-11 22:48:00,,0816.8,5.00,0.00,30.1,28.9,00.0,38.9,31.9,04.8,0000.0,0007.71,0002.34,0001.58
2022-12-11 22:49:00,,0816.8,4.99,0.00,30.1,28.9,00.0,38.9,32.0,04.8,0000.0,0006.78,0002.32,0001.58
2022-12-11 22:50:00,,0816.8,4.99,0.00,30.2,29.0,00.0,38.9,32.0,04.8,0000.0,0006.53,0002.31,0001.59
2022-12-11 22:51:00,,0816.9,5.01,0.00,30.2,29.0,00.0,39.0,32.0,04.8,0000.0,0006.44,0002.33,0001.60
2022-12-11 22:52:00,,0816.9,4.99,0.00,30.2,29.0,00.0,39.0,32.0,04.8,0000.0,0006.38,0002.33,0001.62
2022-12-11 22:53:00,,0816.9,5.00,0.00,30.2,29.0,00.0,39.0,32.0,04.8,0000.0,0005.99,0002.29,0001.64
2022-12-11 22:54:00,,0816.8,5.02,0.00,30.2,29.0,00.0,39.0,32.0,04.8,0000.0,0005.15,0002.31,0001.64
2022-12-11 22:55:00,,0816.8,4.99,0.00,30.2,29.0,00.0,39.0,32.0,04.9,0000.0,0005.13,0002.31,0001.65
2022-12-11 22:56:00,,0817.1,5.01,0.00,30.2,29.0,00.0,39.0,32.0,04.9,0000.0,0005.04,0002.34,0001.66
2022-12-11 22:57:00,,0817.0,4.99,0.00,30.2,29.0,00.0,39.0,32.0,04.9,0000.0,0004.28,0002.39,0001.67
2022-12-11 22:58:00,,0817.1,5.00,0.00,30.3,29.0,00.0,39.0,32.0,04.9,0000.0,0004.57,0002.44,0001.70
2022-12-11 22:59:00,,0817.0,5.02,0.00,30.3,29.0,00.0,39.0,32.1,04.9,0000.0,0005.21,0002.47,0001.72
